Date,TemperatureHighF,TemperatureAvgF,TemperatureLowF,DewpointHighF,DewpointAvgF,DewpointLowF,HumidityHigh,HumidityAvg,HumidityLow,PressureMaxIn,PressureMinIn,WindSpeedMaxMPH,WindSpeedAvgMPH,GustSpeedMaxMPH,PrecipitationSumIn
2013-1-1,25.3,10.9,0.3,14.1,5.7,-3.4,89,80,57,30.65,30.33,6,0,7,0.00
2013-1-2,29.1,13.9,0.2,17.6,8.5,-4.0,92,80,50,30.68,30.50,5,0,9,0.00
2013-1-3,25.9,5.1,-7.1,10.8,-0.6,-11.1,92,78,47,30.85,30.67,6,0,7,0.00
2013-1-4,29.6,8.1,-3.6,13.3,2.0,-7.5,92,78,44,30.82,30.58,6,0,7,0.00
2013-1-5,30.6,8.1,-5.7,16.8,2.5,-9.6,91,79,45,30.87,30.69,7,0,7,0.01
2013-1-6,29.3,12.8,-0.4,16.4,6.3,-4.1,91,77,46,30.81,30.45,7,0,7,0.00
2013-1-7,37.4,15.5,1.1,21.3,9.3,-2.4,93,79,41,30.48,30.29,9,0,9,0.00
2013-1-8,38.2,18.6,7.5,22.2,12.4,4.4,92,79,43,30.69,30.38,7,0,7,0.04
2013-1-9,41.1,20.6,7.3,23.2,14.7,4.3,95,80,45,30.69,30.35,8,1,8,0.04
2013-1-10,41.6,24.8,9.6,27.6,17.3,6.8,93,75,46,30.35,29.61,18,1,19,0.01
2013-1-11,41.0,23.4,8.9,28.4,16.7,5.2,90,76,48,30.03,29.46,20,3,23,0.00
2013-1-12,21.5,9.3,-0.4,8.1,2.6,-4.0,95,76,41,30.30,30.03,8,0,9,0.00
2013-1-13,16.3,5.8,-3.7,6.7,0.5,-7.8,89,79,61,30.46,30.28,7,0,8,0.00
2013-1-14,15.6,-1.7,-13.7,-0.9,-8.9,-18.3,86,73,44,30.76,30.46,8,1,9,0.00
2013-1-15,16.6,0.6,-13.9,6.2,-6.9,-18.5,85,71,46,31.00,30.75,6,0,7,0.00
2013-1-16,32.7,11.7,-2.3,16.5,4.9,-6.2,91,76,43,31.00,30.78,5,0,7,0.01
2013-1-17,37.7,15.6,2.5,19.0,9.3,-1.0,94,78,43,30.93,30.73,7,0,7,0.00
2013-1-18,38.9,16.8,2.6,21.8,10.8,-0.7,94,79,44,30.80,30.60,7,0,7,0.01
2013-1-19,41.0,18.2,3.4,21.0,11.5,-0.1,97,78,38,30.80,30.64,7,0,8,0.00
2013-1-20,40.9,18.0,3.6,19.7,10.5,0.5,94,76,32,30.72,30.51,7,0,7,0.01
2013-1-21,43.0,18.7,5.1,21.4,10.8,1.8,92,75,32,30.70,30.53,6,0,7,0.00
2013-1-22,44.7,19.3,4.5,20.1,10.9,1.0,92,74,32,30.69,30.56,8,0,8,0.00
2013-1-23,42.2,21.3,5.3,21.3,11.3,1.6,91,69,31,30.71,30.56,9,1,9,0.01
2013-1-24,36.5,32.1,25.5,33.7,27.5,18.5,100,84,56,30.51,30.43,7,0,7,0.03
2013-1-25,38.8,33.8,30.8,35.5,32.1,29.5,100,94,87,30.48,30.24,5,0,6,0.07
2013-1-26,42.4,35.9,32.8,37.7,34.1,31.8,98,93,82,30.25,29.82,5,0,5,0.15
2013-1-27,44.2,37.7,34.1,38.5,35.3,32.8,97,91,79,29.92,29.73,6,1,6,0.32
2013-1-28,36.4,30.0,20.8,34.4,28.2,16.2,97,93,83,29.87,29.67,15,1,16,0.20
2013-1-29,21.9,15.0,4.5,18.3,11.6,1.5,95,86,72,30.31,29.86,5,0,6,0.01
2013-1-30,22.6,15.5,4.9,20.6,13.1,2.0,100,90,85,30.47,30.31,4,0,5,0.00
2013-1-31,38.6,27.7,11.8,31.6,24.6,9.2,95,88,67,30.58,30.41,5,0,5,0.16
2013-2-1,40.4,30.9,25.7,31.7,27.0,23.8,100,86,57,30.45,30.31,7,0,10,0.09
2013-2-2,42.4,25.8,14.4,28.7,20.8,12.2,100,83,50,30.65,30.45,6,1,8,0.01
2013-2-3,38.4,25.2,15.7,27.3,19.6,13.5,95,81,54,30.53,30.24,6,0,6,0.00
2013-2-4,43.7,25.2,11.3,27.2,18.7,8.8,100,78,43,30.38,30.25,7,1,8,0.01
2013-2-5,46.8,26.3,12.7,28.5,19.5,10.1,95,78,38,30.38,30.11,6,1,7,0.00
2013-2-6,43.4,29.8,19.8,33.1,25.1,17.6,94,84,59,30.22,30.02,9,1,10,0.01
2013-2-7,45.0,27.0,17.9,23.6,18.1,12.1,93,71,34,30.35,30.15,6,1,6,0.01
2013-2-8,46.9,31.0,14.1,28.4,19.1,10.7,90,65,35,30.20,29.72,13,1,18,0.00
2013-2-9,39.4,29.8,20.2,27.6,22.5,15.5,92,75,49,29.79,29.54,14,1,15,0.05
2013-2-10,35.9,25.1,18.9,19.2,16.5,12.6,89,71,38,30.04,29.79,15,1,15,0.00
2013-2-11,28.0,22.0,11.5,20.0,15.1,3.5,92,75,54,30.31,30.01,9,1,11,0.01
2013-2-12,31.7,16.6,0.9,14.7,6.9,-3.1,87,67,42,30.53,30.31,8,1,10,0.00
2013-2-13,38.1,26.4,21.2,21.8,17.8,12.6,82,71,49,30.53,30.27,6,0,7,0.00
2013-2-14,37.0,28.4,22.1,26.7,20.5,15.7,92,73,46,30.41,30.26,11,1,13,0.03
2013-2-15,36.5,26.3,17.7,22.7,16.6,12.9,89,69,42,30.61,30.41,15,1,17,0.00
2013-2-16,46.4,25.2,9.6,20.6,14.4,6.5,91,67,29,30.65,30.32,10,1,10,0.00
2013-2-17,48.8,29.9,14.4,22.8,14.9,10.4,87,58,23,30.32,29.80,23,2,24,0.00
2013-2-18,36.7,24.9,14.8,15.3,11.3,7.7,81,57,33,30.26,29.96,12,1,17,0.00
2013-2-19,47.1,24.4,6.0,21.1,10.8,1.7,86,61,22,30.26,29.85,5,0,7,0.00
2013-2-20,45.3,31.0,16.2,24.4,16.6,11.1,83,58,28,29.85,29.54,11,1,14,0.00
2013-2-21,37.2,30.1,23.5,23.6,19.0,13.1,87,65,44,29.96,29.64,15,1,15,0.00
2013-2-22,34.1,23.0,15.5,19.6,12.0,6.5,85,65,33,30.23,29.96,14,1,15,0.00
2013-2-23,33.5,21.7,9.4,25.1,16.6,5.2,93,81,61,30.21,29.86,10,0,11,0.01
2013-2-24,28.7,21.1,12.2,22.0,16.9,9.3,92,84,72,30.29,29.88,10,0,10,0.10
2013-2-25,37.6,18.3,2.1,18.0,10.3,-1.4,93,73,36,30.47,30.17,7,1,8,0.02
2013-2-26,30.7,23.8,13.3,19.3,14.1,9.0,91,68,45,30.37,30.04,18,1,18,0.02
2013-2-27,35.4,19.1,4.2,14.6,7.5,0.7,89,63,34,30.60,30.37,8,1,12,0.00
2013-2-28,36.3,21.3,4.1,25.8,10.8,-0.6,90,66,32,30.70,30.57,10,1,13,0.00
2013-3-1,38.7,30.5,25.8,29.1,25.9,24.0,94,84,62,30.62,30.52,4,0,4,0.04
2013-3-2,53.9,33.5,18.6,28.8,24.1,16.2,95,72,34,30.64,30.24,6,1,8,0.00
2013-3-3,48.3,36.0,27.8,34.3,28.0,23.4,95,74,44,30.24,29.84,11,1,15,0.15
2013-3-4,42.4,32.0,20.0,36.2,22.6,6.5,97,71,39,30.36,29.79,23,2,31,0.08
2013-3-5,49.9,26.2,9.3,19.6,10.6,-0.1,83,57,13,30.54,30.30,9,1,10,0.00
2013-3-6,58.8,35.4,16.8,28.6,20.1,12.6,87,60,22,30.32,29.92,11,1,11,0.00
2013-3-7,60.2,41.1,28.1,28.0,22.8,11.6,85,56,16,29.98,29.82,11,1,15,0.00
2013-3-8,54.9,38.0,27.6,33.5,26.0,19.9,94,66,26,29.87,29.64,13,1,15,0.10
2013-3-9,34.2,30.8,18.8,32.6,29.0,16.1,97,93,87,30.18,29.58,8,0,10,0.25
2013-3-10,43.6,25.2,10.1,29.9,19.2,7.5,96,80,49,30.45,30.18,7,1,7,0.07
2013-3-11,47.8,32.8,19.1,30.1,23.3,16.8,93,71,38,30.41,30.15,11,1,14,0.00
2013-3-12,52.3,39.1,29.5,30.4,28.1,25.9,88,67,38,30.30,30.19,9,1,10,0.00
2013-3-13,58.2,38.9,25.1,31.3,27.2,22.9,95,67,30,30.43,30.29,9,1,11,0.00
2013-3-14,64.5,42.1,25.2,30.6,26.2,22.0,91,60,21,30.44,30.22,7,1,11,0.00
2013-3-15,65.7,44.8,29.8,33.3,28.6,25.4,92,59,23,30.24,29.90,12,1,15,0.00
2013-3-16,55.5,43.7,32.5,36.8,30.9,28.0,84,62,37,29.91,29.71,12,1,15,0.00
2013-3-17,49.2,38.5,28.6,37.4,24.2,8.2,95,62,22,29.90,29.64,30,2,41,0.13
2013-3-18,47.3,35.8,26.5,21.0,15.2,10.3,63,44,24,30.05,29.90,22,2,23,0.00
2013-3-19,49.6,37.0,27.3,21.2,8.2,-11.8,71,38,8,30.27,30.04,13,2,18,0.00
2013-3-20,49.9,35.8,20.0,31.0,16.7,8.1,77,48,25,30.27,29.87,8,1,12,0.00
2013-3-21,44.3,35.8,29.1,36.1,28.2,17.5,96,76,39,29.93,29.65,17,1,28,0.40
2013-3-22,44.3,31.9,21.5,18.7,15.7,8.5,80,54,25,29.93,29.68,27,2,27,0.00
2013-3-23,29.6,23.3,13.5,18.6,13.0,7.3,82,65,42,30.31,29.84,15,2,18,0.01
2013-3-24,30.9,20.9,13.2,18.5,8.9,0.7,84,61,29,30.42,30.26,17,1,21,0.00
2013-3-25,41.7,23.6,8.4,12.4,4.8,0.0,77,48,19,30.51,30.33,9,1,12,0.01
2013-3-26,56.4,36.5,20.2,26.0,15.7,5.9,73,46,22,30.36,29.94,17,1,21,0.00
2013-3-27,60.6,45.1,29.5,30.6,24.5,13.6,85,49,17,30.02,29.88,17,2,22,0.00
2013-3-28,63.7,45.7,29.7,28.6,23.2,19.1,74,45,19,30.05,29.91,19,1,28,0.00
2013-3-29,59.5,48.6,38.3,39.3,30.9,26.5,82,53,30,30.09,29.95,20,2,22,0.01
2013-3-30,61.1,44.9,29.4,34.7,28.5,21.2,91,59,23,30.14,29.97,21,1,22,0.00
2013-3-31,65.1,44.6,26.9,28.6,23.8,16.9,82,49,16,30.12,29.90,13,2,16,0.00
2013-4-1,61.4,45.3,30.7,35.4,28.2,20.8,76,53,30,29.95,29.72,19,2,20,0.00
2013-4-2,54.2,43.0,30.9,35.1,31.0,26.5,90,65,35,29.97,29.79,18,2,19,0.00
2013-4-3,62.2,44.5,29.4,32.7,27.6,19.1,92,57,20,30.12,29.96,13,2,16,0.00
2013-4-4,66.4,47.3,28.4,30.5,25.7,19.7,86,49,17,30.17,29.93,17,1,17,0.00
2013-4-5,63.6,47.5,35.1,41.5,30.6,24.1,94,57,23,29.96,29.65,26,2,27,0.03
2013-4-6,58.2,43.2,28.7,38.4,30.3,24.6,95,67,29,29.97,29.82,13,2,16,0.06
2013-4-7,57.4,42.3,31.1,42.0,33.3,26.2,97,74,30,29.92,29.63,21,1,30,0.10
2013-4-8,56.2,43.8,36.7,39.4,31.7,24.0,95,65,30,29.64,29.25,26,1,26,0.22
2013-4-9,38.7,28.3,18.0,37.1,25.2,12.8,96,88,77,30.14,29.36,8,1,10,0.03
2013-4-10,39.4,24.2,12.0,24.1,15.3,8.6,87,70,34,30.34,30.13,12,1,15,0.03
2013-4-11,47.6,35.8,29.1,38.3,29.5,23.4,92,79,53,30.18,29.89,13,1,18,0.03
2013-4-12,58.9,42.2,32.9,37.0,28.2,10.8,99,65,16,29.95,29.82,12,1,13,0.01
2013-4-13,57.8,43.2,27.4,39.3,27.0,19.4,91,58,25,29.87,29.34,25,2,25,0.20
2013-4-14,47.4,38.8,32.4,37.4,19.2,3.0,93,50,22,29.70,29.49,31,3,31,0.00
2013-4-15,38.0,33.8,32.4,33.0,30.4,23.0,96,88,58,29.76,29.53,2,0,9,0.23
2013-4-16,49.9,35.8,26.8,37.4,29.4,25.0,97,79,57,29.86,29.60,20,2,22,0.52
2013-4-17,33.6,25.8,16.8,25.0,19.0,11.4,94,77,49,30.23,29.77,19,1,21,0.24
2013-4-18,35.7,22.8,9.1,17.4,11.5,6.0,90,65,37,30.52,30.23,15,1,17,0.07
2013-4-19,44.9,31.7,16.5,29.2,18.9,12.9,87,62,35,30.52,30.13,10,1,11,0.00
2013-4-20,47.4,38.1,33.0,40.7,34.5,28.9,95,87,71,30.14,29.96,10,1,11,0.25
2013-4-21,57.3,37.0,31.2,35.1,31.6,23.5,96,84,28,30.18,29.94,4,0,13,0.05
2013-4-22,56.7,46.1,36.2,34.5,28.8,18.7,83,54,24,29.93,29.76,23,3,31,0.00
2013-4-23,43.3,36.7,28.4,30.7,17.2,8.4,74,47,25,30.17,29.85,21,2,21,0.00
2013-4-24,30.6,27.0,24.4,17.7,15.9,13.4,73,63,51,30.22,30.15,4,0,4,0.00
2013-4-25,31.5,28.0,25.7,18.2,17.1,15.9,71,64,52,30.18,30.14,1,0,6,0.00
2013-4-26,66.3,53.5,27.5,27.0,19.4,10.2,76,30,12,30.15,29.96,15,2,18,0.00
2013-4-27,70.8,49.7,29.1,31.1,22.4,13.8,76,39,13,30.21,29.95,17,2,17,0.00
2013-4-28,72.4,54.0,30.9,35.1,25.9,21.1,75,38,16,30.03,29.74,16,2,19,0.00
2013-4-29,73.3,58.0,38.0,34.3,30.0,24.1,73,38,18,29.77,29.48,20,3,22,0.00
2013-4-30,65.4,53.0,44.5,35.8,31.7,27.6,61,46,25,29.51,29.44,37,1,37,0.00
2013-5-1,47.8,40.0,33.7,36.0,26.2,14.7,95,63,28,30.42,29.67,7,3,21,0.30
2013-5-2,52.7,37.3,22.0,22.2,18.0,10.7,86,51,21,30.65,30.43,6,2,19,0.00
2013-5-3,65.8,47.0,23.5,29.3,20.7,15.3,77,40,16,30.47,29.92,12,1,13,0.00
2013-5-4,69.4,51.5,29.0,29.8,22.9,12.4,76,39,13,29.93,29.71,14,2,14,0.00
2013-5-5,68.2,53.2,36.8,34.7,28.5,19.4,74,44,17,29.83,29.71,12,1,13,0.00
2013-5-6,65.2,50.3,41.2,45.4,36.4,28.8,93,62,29,29.89,29.69,13,1,15,0.25
2013-5-7,59.1,47.1,39.7,44.6,40.7,34.6,97,81,42,29.92,29.82,19,1,22,0.05
2013-5-8,48.1,40.4,32.9,42.7,37.9,31.5,97,91,73,30.05,29.87,8,0,8,0.54
2013-5-9,63.7,48.3,37.3,43.1,38.9,34.7,97,74,34,30.08,29.96,18,1,21,0.01
2013-5-10,67.9,49.2,32.0,39.6,34.0,24.8,95,62,20,30.18,30.02,18,1,18,0.01
2013-5-11,70.4,52.0,32.7,40.0,33.1,28.1,91,54,22,30.28,30.07,15,1,18,0.00
2013-5-12,75.2,57.7,40.7,44.7,37.3,33.2,80,50,25,30.15,29.94,12,1,14,0.00
2013-5-13,80.6,53.1,41.1,42.3,37.5,34.4,84,60,19,30.08,29.85,7,1,15,0.00
2013-5-14,82.3,61.8,42.6,45.7,38.3,32.3,79,46,17,29.88,29.66,18,1,25,0.00
2013-5-15,74.3,59.6,44.7,47.9,42.0,35.9,85,56,26,29.81,29.60,27,1,33,0.25
2013-5-16,77.4,59.8,40.0,47.1,39.7,28.6,95,55,19,29.78,29.58,17,1,21,0.00
2013-5-17,76.0,59.6,41.6,40.3,30.6,16.5,78,41,11,29.71,29.57,18,2,19,0.00
2013-5-18,63.7,52.3,42.9,42.2,35.9,28.7,90,55,35,29.83,29.65,18,1,27,0.02
2013-5-19,59.9,46.8,37.0,41.6,37.6,32.4,96,73,37,29.89,29.78,13,1,14,0.02
2013-5-20,58.9,48.7,40.8,42.8,38.4,34.1,93,70,43,29.98,29.86,16,2,22,0.01
2013-5-21,67.6,52.3,36.8,39.3,36.1,33.1,89,58,29,30.00,29.75,13,1,16,0.00
2013-5-22,77.8,60.3,39.0,39.4,32.6,22.5,86,43,14,29.77,29.52,16,2,18,0.00
2013-5-23,81.2,63.9,40.9,38.3,27.0,12.5,73,33,8,29.65,29.47,26,3,29,0.00
2013-5-24,78.4,62.1,44.8,32.1,25.4,16.7,57,28,11,29.74,29.57,18,2,22,0.00
2013-5-25,79.8,60.0,37.4,39.0,26.5,13.2,67,34,9,29.83,29.67,14,1,25,0.00
2013-5-26,80.7,61.0,39.7,33.5,27.0,16.2,64,32,10,29.78,29.59,12,1,14,0.00
2013-5-27,76.6,58.6,38.9,32.5,25.4,17.3,63,32,12,29.72,29.53,15,2,19,0.00
2013-5-28,73.5,57.0,38.3,39.8,31.4,25.0,72,41,18,29.62,29.39,19,1,26,0.00
2013-5-29,55.4,46.9,42.1,45.8,41.1,37.8,95,81,58,29.72,29.52,14,1,19,0.41
2013-5-30,65.9,51.3,37.7,41.8,33.3,24.2,94,58,23,29.83,29.69,19,2,25,0.00
2013-5-31,67.5,54.1,39.9,32.1,26.2,14.9,69,37,14,29.98,29.80,20,2,21,0.00
2013-6-1,72.5,53.5,33.3,39.3,31.3,25.4,81,46,22,30.13,29.92,11,1,13,0.00
2013-6-2,82.4,60.3,35.6,40.4,30.1,19.0,85,41,10,29.98,29.61,15,1,21,0.00
2013-6-3,81.5,63.3,42.3,42.3,33.0,26.0,71,37,14,29.70,29.53,24,2,26,0.00
2013-6-4,80.4,63.8,40.4,40.3,31.9,23.0,64,33,17,29.77,29.60,21,2,24,0.00
2013-6-5,77.2,61.6,40.8,40.0,33.7,27.6,75,39,17,29.82,29.71,14,1,16,0.00
2013-6-6,81.0,61.5,39.0,40.9,34.6,30.4,75,41,18,29.89,29.73,13,1,16,0.00
2013-6-7,76.3,55.1,46.2,42.2,37.0,32.9,72,52,27,29.81,29.59,6,0,8,0.00
2013-6-8,83.0,65.2,45.8,47.0,39.0,32.2,78,43,19,29.73,29.59,18,2,19,0.00
2013-6-9,89.3,66.3,42.1,48.1,38.4,32.3,77,40,16,29.84,29.64,10,1,11,0.00
2013-6-10,92.1,70.9,45.7,48.0,37.5,29.0,72,36,11,29.72,29.49,19,1,25,0.00
2013-6-11,85.0,68.5,46.8,37.5,30.0,20.8,61,28,11,29.78,29.58,23,2,28,0.00
2013-6-12,89.3,68.6,44.0,40.6,33.0,25.2,62,31,12,29.84,29.68,11,1,15,0.00
2013-6-13,86.6,69.7,51.5,49.0,36.2,28.6,66,32,14,29.76,29.53,28,1,30,0.00
2013-6-14,86.8,68.9,50.4,41.7,31.5,12.9,58,31,8,29.72,29.55,17,1,18,0.00
2013-6-15,82.3,67.6,41.0,39.0,30.5,22.1,64,29,12,29.83,29.67,24,2,26,0.00
2013-6-16,81.3,63.4,47.7,52.5,41.7,34.6,80,47,25,29.90,29.75,19,1,26,0.04
2013-6-17,84.0,65.3,43.9,47.9,38.9,20.8,81,43,10,29.90,29.71,19,1,24,0.00
2013-6-18,86.2,66.6,44.0,46.1,34.2,16.5,72,36,9,29.78,29.49,15,1,18,0.00
2013-6-19,86.5,67.7,42.9,33.7,22.6,7.1,58,22,6,29.59,29.43,21,2,26,0.00
2013-6-20,85.8,67.1,44.5,35.0,25.6,17.2,53,24,9,29.66,29.51,17,1,21,0.00
2013-6-21,85.9,66.6,41.2,34.2,25.3,16.7,58,25,8,29.71,29.52,19,1,24,0.00
2013-6-22,83.1,65.1,42.6,35.2,27.0,16.5,58,27,10,29.67,29.55,22,2,25,0.00
2013-6-23,85.5,66.7,42.7,38.9,29.1,21.8,59,27,12,29.74,29.48,13,1,16,0.00
2013-6-24,82.2,67.3,44.9,42.5,28.7,19.0,63,28,11,29.63,29.52,19,2,22,0.00
2013-6-25,85.0,69.6,51.4,47.3,36.8,30.4,63,32,16,29.74,29.58,18,1,19,0.00
2013-6-26,91.5,71.2,46.2,44.7,37.6,31.1,68,34,12,29.86,29.73,10,1,13,0.00
2013-6-27,95.9,74.1,47.9,47.8,39.2,31.9,65,32,14,29.96,29.77,10,1,12,0.00
2013-6-28,97.0,76.0,52.1,51.6,40.4,32.2,55,31,12,29.91,29.69,11,1,14,0.00
2013-6-29,92.6,75.1,56.5,55.2,43.7,38.3,63,35,16,29.79,29.60,13,1,22,0.00
2013-6-30,90.2,71.3,51.7,53.8,45.8,41.9,72,44,20,29.82,29.63,16,1,21,0.00
2013-7-1,88.0,71.3,51.1,52.5,43.1,37.3,69,40,17,29.89,29.72,4,1,20,0.00
2013-7-2,87.7,72.7,56.2,47.4,41.8,36.9,61,35,18,29.85,29.66,5,1,19,0.00
2013-7-3,88.2,66.9,48.5,62.2,43.9,34.2,78,47,17,29.79,29.61,7,1,31,0.10
2013-7-4,89.5,71.7,49.7,53.3,49.3,45.3,90,50,22,29.78,29.55,12,1,17,0.00
2013-7-5,87.1,70.4,55.5,63.9,55.9,50.1,94,64,31,29.66,29.42,19,1,19,0.18
2013-7-6,85.3,68.4,54.9,57.3,53.9,46.7,95,65,28,29.74,29.56,22,1,25,0.23
2013-7-7,90.2,69.9,51.1,56.5,51.2,40.5,94,59,19,29.84,29.61,13,1,17,0.05
2013-7-8,87.3,70.4,50.5,56.6,49.7,42.1,93,55,21,29.86,29.72,16,1,20,0.01
2013-7-9,91.0,74.0,54.1,52.7,45.9,39.0,74,41,17,29.89,29.72,17,1,20,0.00
2013-7-10,94.5,76.1,54.7,58.3,43.3,35.3,67,35,14,29.82,29.56,13,1,16,0.00
2013-7-11,93.8,74.2,54.0,60.8,45.9,34.1,77,39,19,29.72,29.46,19,1,22,0.03
2013-7-12,87.1,71.1,56.2,59.1,55.1,48.4,91,61,27,29.78,29.59,13,1,23,0.00
2013-7-13,87.5,72.0,59.0,61.2,55.3,45.6,95,61,25,29.81,29.67,12,1,15,0.05
2013-7-14,85.6,67.0,58.4,66.3,58.2,51.1,94,76,35,29.85,29.69,12,0,12,0.32
2013-7-15,87.4,69.6,52.4,60.0,53.0,47.8,95,62,27,29.85,29.60,17,1,22,0.00
2013-7-16,87.7,70.7,53.8,60.9,54.0,49.8,89,58,32,29.79,29.60,12,1,14,0.00
2013-7-17,85.5,72.2,57.4,59.0,55.0,51.9,83,57,35,29.86,29.70,12,1,14,0.00
2013-7-18,88.6,68.3,55.2,60.9,55.2,49.1,95,67,28,29.90,29.67,27,1,27,0.44
2013-7-19,90.6,70.5,56.4,62.5,55.6,47.1,97,65,25,29.89,29.63,8,0,10,0.00
2013-7-20,92.8,72.0,51.8,55.8,45.7,31.9,87,47,13,29.77,29.52,13,1,15,0.00
2013-7-21,92.0,71.9,47.8,55.2,39.5,28.3,70,35,11,29.70,29.52,10,1,11,0.00
2013-7-22,94.2,75.3,56.2,51.5,38.0,19.4,61,30,8,29.72,29.56,15,1,19,0.00
2013-7-23,93.0,72.1,46.0,42.5,32.0,25.0,60,27,10,29.80,29.64,14,1,21,0.00
2013-7-24,86.3,72.3,59.4,53.9,41.6,29.3,59,34,23,29.77,29.65,14,1,21,0.00
2013-7-25,83.2,70.8,55.2,61.5,51.2,46.4,74,52,31,29.89,29.71,7,0,9,0.01
2013-7-26,90.1,69.6,47.6,52.8,44.6,35.8,84,48,16,29.98,29.77,12,1,12,0.00
2013-7-27,84.5,66.6,55.1,58.4,48.5,36.4,95,56,28,29.83,29.57,12,1,19,0.19
2013-7-28,79.0,62.3,56.9,61.6,57.4,52.7,97,86,43,29.77,29.65,12,0,14,0.36
2013-7-29,79.8,66.1,56.1,58.3,53.6,46.5,97,69,33,29.90,29.77,14,1,19,0.01
2013-7-30,79.6,64.4,48.6,61.4,50.5,45.3,95,65,31,30.05,29.90,11,1,15,0.00
2013-7-31,88.8,69.7,49.9,52.4,45.7,35.2,89,49,18,30.08,29.81,10,1,14,0.01
2013-8-1,74.2,62.3,50.9,57.4,48.6,39.9,88,62,39,29.91,29.82,15,1,16,0.00
2013-8-2,85.9,67.1,48.6,56.1,50.1,42.9,94,60,23,29.92,29.75,17,1,20,0.00
2013-8-3,86.7,69.9,57.4,56.5,50.9,43.8,83,54,24,29.88,29.72,21,1,21,0.00
2013-8-4,66.6,55.1,50.5,52.8,48.5,46.6,87,79,60,29.91,29.83,5,0,5,0.00
2013-8-5,82.5,65.3,50.6,58.4,50.4,46.9,87,62,32,29.94,29.78,7,1,24,0.01
2013-8-6,80.6,63.0,48.6,55.5,49.0,44.6,87,62,35,29.87,29.79,7,1,32,0.07
2013-8-7,80.7,70.1,50.4,51.9,45.2,38.5,88,44,27,29.86,29.73,21,1,23,0.00
2013-8-8,77.2,63.0,51.3,50.5,46.1,37.3,81,57,25,29.85,29.76,16,1,20,0.00
2013-8-21,85.9,76.3,66.3,59.4,50.5,46.5,53,41,27,29.86,29.73,7,1,7,0.00
2013-8-22,87.0,72.3,57.2,55.7,49.4,46.0,86,47,25,29.89,29.67,12,0,12,0.00
2013-8-23,84.3,65.2,51.5,64.4,51.7,46.3,86,64,31,29.79,29.60,14,1,24,0.05
2013-8-24,57.1,53.3,51.2,53.0,50.1,48.4,91,89,85,29.85,29.78,4,0,5,0.00
2013-8-25,76.2,65.6,56.6,61.2,56.3,45.3,93,73,44,29.95,29.86,10,0,12,0.06
2013-8-26,77.7,65.1,56.9,59.9,56.7,52.7,97,77,45,30.00,29.86,8,0,9,0.03
2013-8-27,88.2,68.3,50.1,58.4,51.8,47.4,94,61,25,29.97,29.74,10,1,19,0.00
2013-8-28,89.9,71.4,53.1,57.0,50.2,41.8,88,53,19,29.86,29.70,10,1,14,0.00
2013-8-29,92.8,72.4,51.1,55.2,48.3,42.5,80,48,18,29.91,29.74,12,1,15,0.00
2013-8-30,88.0,70.2,55.0,56.8,51.0,46.7,78,53,25,29.88,29.73,10,0,11,0.00
2013-8-31,87.9,67.9,57.8,60.1,52.9,49.1,94,62,29,29.86,29.68,12,1,15,0.16
2013-9-1,88.0,68.0,52.8,59.0,54.3,46.7,97,68,26,29.86,29.68,8,0,10,0.01
2013-9-2,87.5,69.0,51.3,55.0,50.9,47.8,89,57,27,29.89,29.68,14,1,14,0.00
2013-9-3,90.9,70.6,51.9,55.0,49.4,40.9,86,52,19,29.89,29.72,16,1,20,0.00
2013-9-4,93.3,74.3,59.1,55.0,50.2,46.3,75,46,21,29.90,29.70,12,1,14,0.00
2013-9-5,90.3,74.3,55.1,58.6,50.9,45.6,79,49,23,29.90,29.70,12,1,13,0.01
2013-9-6,90.4,70.8,52.5,58.6,50.7,41.9,92,56,19,29.91,29.67,16,1,19,0.01
2013-9-7,91.5,69.2,50.1,55.0,47.8,39.3,82,52,17,29.87,29.64,19,1,22,0.02
2013-9-8,85.0,68.4,55.1,54.5,51.3,47.1,82,58,28,29.79,29.57,10,1,11,0.00
2013-9-9,65.7,59.1,55.3,58.6,54.9,50.7,99,86,69,29.82,29.66,15,0,20,0.54
2013-9-10,69.5,60.0,54.7,60.8,56.8,53.6,97,90,66,29.85,29.79,10,0,20,0.61
2013-9-11,67.8,60.6,56.9,61.4,58.1,56.1,98,92,75,29.91,29.83,8,0,9,0.09
2013-9-12,80.3,62.7,50.7,58.3,53.8,44.2,98,77,32,29.98,29.78,15,1,19,0.15
2013-9-13,78.8,62.6,54.8,57.7,52.7,40.6,98,75,27,29.86,29.60,9,0,10,0.06
2013-9-14,73.5,60.0,54.1,56.6,53.1,49.9,96,80,46,29.78,29.66,8,0,8,0.34
2013-9-15,73.5,58.8,51.4,56.5,52.8,49.8,98,83,45,29.93,29.78,8,0,8,0.01
2013-9-16,76.0,58.0,45.6,53.8,48.6,42.9,98,74,34,30.02,29.85,16,0,16,0.01
2013-9-17,76.9,57.6,44.0,58.4,48.8,42.4,96,76,38,29.93,29.68,13,0,13,0.00
2013-9-18,75.0,61.6,50.2,59.8,51.5,45.9,98,73,38,29.74,29.59,22,1,24,0.13
2013-9-19,72.2,55.9,42.1,49.1,40.4,29.4,95,62,22,29.96,29.74,9,1,12,0.01
2013-9-20,78.2,53.7,33.6,40.7,32.9,18.3,96,53,12,30.06,29.87,8,1,10,0.00
2013-9-21,79.9,58.1,41.7,49.9,39.6,34.9,86,56,23,29.93,29.62,19,1,19,0.00
2013-9-22,65.7,52.6,43.6,53.2,46.0,41.1,96,80,49,29.66,29.44,22,1,26,0.75
2013-9-23,64.7,50.0,43.3,46.3,40.6,31.0,97,74,31,30.07,29.63,13,1,13,0.12
2013-9-24,75.4,49.6,33.8,45.1,37.6,32.6,98,70,23,30.16,29.83,7,0,8,0.00
2013-9-25,75.8,58.7,37.2,38.8,32.5,24.8,89,47,18,29.83,29.37,20,2,24,0.00
2013-9-26,75.2,63.1,40.7,37.5,30.5,24.8,83,34,17,29.47,29.32,22,3,26,0.00
2013-9-27,62.9,44.0,33.4,46.2,39.5,31.8,95,85,40,30.11,29.41,25,1,26,0.77
2013-9-28,61.4,41.1,29.3,38.0,31.8,24.8,97,74,25,30.35,30.11,7,0,8,0.01
2013-9-29,68.1,41.1,29.0,37.5,31.8,25.2,96,74,21,30.27,30.00,11,0,16,0.01
2013-9-30,74.2,51.5,34.1,39.3,33.7,27.1,91,58,19,30.04,29.80,15,1,18,0.00
2013-10-1,78.1,53.6,34.3,41.1,34.1,27.2,92,55,17,29.96,29.77,10,1,12,0.00
2013-10-2,74.0,52.2,35.6,41.0,34.5,29.6,87,57,20,29.90,29.69,13,0,14,0.00
2013-10-3,67.3,49.6,34.8,41.2,35.5,30.0,90,63,27,29.80,29.47,24,2,24,0.12
2013-10-4,40.5,34.6,28.5,32.8,28.4,23.1,95,79,51,30.39,29.78,14,2,19,0.15
2013-10-5,50.6,35.9,29.1,31.7,28.1,25.9,93,76,40,30.52,30.39,9,0,9,0.00
2013-10-6,64.3,40.1,24.2,36.8,29.0,22.3,95,70,29,30.56,30.32,5,0,8,0.01
2013-10-7,71.0,46.2,28.3,39.2,32.6,26.8,96,66,20,30.33,29.98,9,1,11,0.00
2013-10-8,71.0,50.2,32.6,37.6,32.1,27.8,90,57,21,29.99,29.67,14,1,18,0.00
2013-10-9,65.7,50.1,37.1,36.3,31.8,25.3,81,54,23,29.75,29.66,6,0,8,0.00
2013-10-10,53.1,44.4,39.2,43.6,38.9,29.6,95,82,53,29.75,29.57,11,1,12,0.75
2013-10-11,50.3,41.3,37.9,42.1,38.6,36.4,96,90,68,30.08,29.75,9,0,12,0.20
2013-10-12,59.9,42.0,31.1,40.7,34.3,30.0,98,79,34,30.17,30.00,10,0,11,0.01
2013-10-13,64.3,47.1,32.8,42.1,35.8,30.6,96,69,33,30.07,29.76,15,1,17,0.04
2013-10-14,49.2,39.6,33.6,41.3,37.5,32.1,97,92,70,30.15,29.80,8,0,14,0.75
2013-10-15,48.4,38.5,31.3,37.2,32.9,28.5,98,82,49,30.20,30.08,13,0,13,0.01
2013-10-16,49.7,35.3,25.6,31.0,28.0,24.4,96,78,42,30.25,30.13,8,0,10,0.00
2013-10-17,53.7,39.3,25.3,35.2,26.3,16.9,95,65,25,30.24,30.02,11,1,14,0.02
2013-10-18,49.9,37.2,28.7,35.1,25.7,16.2,95,67,26,30.29,30.04,11,1,14,0.01
2013-10-19,57.4,36.2,22.1,28.9,24.1,19.9,98,66,27,30.35,30.14,7,0,8,0.00
2013-10-20,56.9,39.7,27.4,30.3,26.9,23.4,90,65,29,30.16,29.95,12,1,15,0.00
2013-10-21,59.5,40.3,27.0,30.7,27.8,24.2,90,65,30,30.27,30.06,3,0,10,0.00
2013-10-22,64.6,41.0,25.6,35.0,28.5,22.8,92,66,28,30.35,30.16,2,0,7,0.00
2013-10-23,68.3,43.6,27.4,35.2,30.3,25.4,95,65,24,30.26,30.06,2,0,7,0.00
2013-10-24,69.7,50.6,28.6,33.5,28.2,20.7,90,47,16,30.21,30.05,7,1,10,0.00
2013-10-25,63.2,43.6,30.3,36.0,29.9,25.5,85,62,30,30.22,30.07,8,0,8,0.00
2013-10-26,66.8,42.9,27.4,34.3,28.6,24.0,90,62,24,30.36,30.17,7,0,8,0.00
2013-10-27,62.7,42.4,26.8,34.0,28.1,23.4,92,62,25,30.20,29.82,11,1,13,0.00
2013-10-28,64.5,48.8,31.0,34.3,26.5,20.3,90,50,19,29.82,29.60,14,2,20,0.00
2013-10-29,55.2,43.5,33.5,38.8,31.3,21.8,95,69,28,29.81,29.57,22,1,28,0.48
2013-10-30,40.7,35.0,33.0,36.1,33.2,31.6,97,93,75,30.03,29.81,7,0,10,0.38
2013-10-31,37.9,34.9,32.8,34.8,32.9,31.1,97,93,79,30.17,30.02,8,0,8,0.09
2013-11-1,49.6,37.5,31.7,38.7,32.5,27.9,98,84,45,30.37,30.14,13,1,15,0.17
2013-11-2,57.5,35.4,23.9,33.6,28.2,22.2,96,79,31,30.38,29.99,6,0,7,0.00
2013-11-3,55.9,37.6,28.1,33.1,26.6,17.5,93,69,33,29.99,29.66,17,1,25,0.01
2013-11-4,42.7,32.3,23.0,30.9,23.6,16.4,91,71,48,30.01,29.86,6,0,8,0.00
2013-11-5,36.4,29.0,19.7,27.2,15.5,6.3,88,59,31,30.47,30.01,12,1,14,0.01
2013-11-6,44.6,26.7,16.2,22.7,16.8,12.1,89,69,37,30.68,30.46,8,0,9,0.00
2013-11-7,55.0,33.5,19.1,29.2,23.2,16.4,93,70,32,30.69,30.25,8,0,9,0.00
2013-11-8,58.6,38.4,26.6,28.8,25.3,20.8,92,64,25,30.25,30.02,23,1,23,0.00
2013-11-9,60.4,37.2,24.2,29.7,25.0,20.9,90,65,26,30.30,30.16,8,0,8,0.00
2013-11-10,61.5,38.3,24.3,29.5,25.2,20.8,90,64,24,30.40,30.24,10,1,10,0.00
2013-11-11,61.4,38.1,23.5,29.5,24.5,20.0,90,64,25,30.49,30.33,7,1,7,0.00
2013-11-12,51.6,29.7,23.4,27.1,22.8,20.0,90,78,38,30.63,30.49,5,0,5,0.00
2013-11-13,56.9,37.4,23.9,30.5,24.2,19.2,83,63,29,30.50,30.18,4,0,9,0.00
2013-11-14,52.2,41.2,26.1,31.6,27.4,23.3,93,60,36,30.18,29.91,8,1,8,0.00
2013-11-15,54.2,39.0,23.4,34.7,27.2,19.0,93,66,30,29.86,29.57,17,1,20,0.02
2013-11-16,39.9,34.7,31.6,34.5,32.0,30.0,96,90,71,29.74,29.50,11,1,12,0.16
2013-11-17,49.6,34.9,28.8,35.9,30.3,26.7,95,85,47,30.26,29.74,14,1,19,0.14
2013-11-18,53.6,32.5,23.0,31.5,25.7,21.2,96,80,32,30.39,30.20,6,0,7,0.01
2013-11-19,41.6,34.4,23.4,36.7,29.7,20.9,100,84,62,30.20,29.96,5,0,6,0.09
2013-11-20,49.0,39.0,31.6,39.6,34.7,30.5,98,86,51,30.00,29.80,5,0,5,0.02
2013-11-21,42.7,34.0,24.7,39.0,31.9,20.8,97,92,83,30.36,29.85,8,0,9,0.21
2013-11-22,33.7,29.0,23.6,31.3,26.2,20.4,95,90,79,30.47,30.34,3,0,3,0.06
2013-11-23,42.3,34.3,29.1,37.5,32.6,27.9,97,93,80,30.43,30.17,6,0,6,0.19
2013-11-24,37.5,34.0,30.4,35.6,32.7,29.4,97,95,91,30.19,30.05,5,0,6,0.03
2013-11-25,43.9,30.9,23.9,31.3,26.4,22.0,97,85,57,30.47,30.13,7,0,7,0.01
2013-11-26,46.1,28.3,18.4,29.5,23.1,16.7,96,83,45,30.60,30.47,6,0,7,0.01
2013-11-27,46.6,28.0,17.7,29.0,22.3,15.8,95,81,43,30.53,30.29,7,0,8,0.01
2013-11-28,48.5,28.7,18.8,29.5,23.2,17.0,95,82,44,30.39,30.25,8,0,8,0.00
2013-11-29,39.4,27.7,18.7,30.6,24.5,16.8,95,88,69,30.53,30.37,7,1,8,0.01
2013-11-30,41.9,29.0,21.7,30.0,24.3,19.7,94,83,60,30.54,30.36,6,1,7,0.00
2013-12-1,34.7,30.0,25.4,27.9,25.3,21.9,93,83,75,30.53,30.35,6,1,7,0.00
2013-12-2,36.1,31.9,29.9,28.2,27.1,26.3,89,82,71,30.36,29.85,8,0,11,0.00
2013-12-3,36.7,29.8,24.6,32.0,26.3,22.8,94,86,77,29.86,29.48,10,0,10,0.00
2013-12-4,24.4,11.3,-4.8,22.7,7.7,-8.6,93,85,75,30.32,29.46,9,0,10,0.00
2013-12-5,15.2,-1.9,-15.3,7.3,-6.3,-19.6,89,81,69,30.50,30.32,6,0,6,0.00
2013-12-6,19.0,5.4,-4.1,10.9,1.2,-7.7,89,83,66,30.57,30.47,5,0,6,0.00
2013-12-7,21.6,15.0,5.4,18.5,12.2,2.6,93,89,81,30.50,29.88,5,0,5,0.00
2013-12-8,21.6,15.1,4.0,18.6,10.0,0.7,93,80,58,30.30,29.83,11,1,13,0.00
2013-12-9,18.2,5.0,-6.4,6.2,-0.6,-11.3,90,78,49,30.93,30.30,6,0,8,0.00
2013-12-10,19.7,3.8,-10.6,8.1,-1.9,-14.8,96,77,57,30.98,30.79,6,1,8,0.00
2013-12-11,28.2,9.6,-3.0,16.5,4.6,-6.6,92,81,58,30.95,30.82,7,0,8,0.03
2013-12-12,32.7,9.9,0.6,20.6,5.4,-3.0,100,83,60,30.97,30.65,6,0,7,0.02
2013-12-13,29.0,14.6,2.0,19.5,10.2,-1.2,92,83,63,30.60,30.36,2,0,6,0.01
2013-12-14,35.2,18.9,6.0,23.8,15.2,3.5,92,86,56,30.79,30.60,3,0,8,0.13
2013-12-15,37.3,21.2,10.4,24.7,16.8,7.7,100,84,57,30.78,30.62,7,0,7,0.12
2013-12-16,40.6,21.0,9.4,27.5,16.9,6.6,96,85,54,30.76,30.63,6,0,7,0.08
2013-12-17,41.7,21.9,10.6,28.5,17.6,7.8,96,85,52,30.80,30.55,5,0,5,0.06
2013-12-18,41.2,25.5,14.4,28.2,20.9,12.0,95,84,54,30.55,29.98,7,0,8,0.03
2013-12-19,47.6,32.5,21.6,34.6,27.4,19.7,96,83,46,30.04,29.71,8,1,8,0.01
2013-12-20,36.9,32.0,23.9,32.8,28.1,20.4,96,86,66,29.78,29.68,9,0,10,0.07
2013-12-21,31.3,22.5,11.9,24.2,18.0,9.3,92,83,59,30.15,29.72,14,0,15,0.02
2013-12-22,33.4,22.6,11.6,23.3,17.3,9.2,93,81,54,30.49,30.15,10,0,11,0.00
2013-12-23,39.2,28.1,23.6,24.2,22.5,21.1,93,80,51,30.60,30.46,5,0,6,0.01
2013-12-24,34.9,25.8,12.4,30.0,20.9,7.6,93,81,54,30.63,30.34,12,0,16,0.02
2013-12-25,34.9,14.3,1.9,18.0,8.3,-1.8,99,78,46,30.86,30.63,6,0,6,0.01
2013-12-26,36.9,16.0,3.0,20.4,9.8,-0.3,92,78,44,30.86,30.69,7,0,7,0.01
2013-12-27,41.2,21.0,10.1,24.5,15.3,7.3,94,80,45,30.78,30.47,6,0,7,0.01
2013-12-28,37.4,22.3,11.6,25.0,17.3,8.8,95,82,54,30.48,30.19,6,0,7,0.00
2013-12-29,36.0,22.5,10.6,21.5,16.0,7.7,94,77,44,30.44,30.27,6,0,7,0.00
2013-12-30,39.2,22.1,10.9,20.0,15.0,7.9,91,76,42,30.61,30.41,8,0,9,0.00
2013-12-31,34.1,26.0,17.7,27.7,22.4,14.2,92,86,76,30.54,30.28,6,0,7,0.03
2014-1-1,42.4,29.8,17.9,30.8,22.1,12.2,95,76,35,30.49,30.23,13,1,20,0.08
2014-1-2,39.4,19.7,8.0,20.9,13.1,4.8,94,77,42,30.63,30.48,6,0,8,0.00